| time (UTC) | temp F | wind direction | speed knots | gust knots | rain 1hr in | rain 24hr in | rain mn in | humidity % | barometer mb |
| 20260506200014 | 66 | 198 | 2.6 | 18.2 | 0.00 | 0.00 | 0.00 | 62 | 1003.6 |
| 20260506194513 | 67 | 206 | 12.2 | 26.1 | 0.00 | 0.00 | 0.00 | 61 | 1003.1 |
| 20260506193016 | 67 | 246 | 13.0 | 31.3 | 0.00 | 0.00 | 0.00 | 59 | 1002.9 |
| 20260506191512 | 67 | 213 | 16.5 | 36.5 | 0.00 | 0.00 | 0.00 | 59 | 1002.8 |
| 20260506190010 | 68 | 215 | 15.6 | 38.2 | 0.00 | 0.00 | 0.00 | 58 | 1002.8 |
| 20260506184511 | 68 | 225 | 20.9 | 38.2 | 0.00 | 0.00 | 0.00 | 57 | 1002.6 |
| 20260506183010 | 68 | 235 | 19.1 | 34.8 | 0.00 | 0.00 | 0.00 | 57 | 1002.5 |
| 20260506181509 | 69 | 222 | 16.5 | 40.0 | 0.00 | 0.00 | 0.00 | 55 | 1002.4 |
| 20260506180014 | 70 | 225 | 20.0 | 43.4 | 0.00 | 0.00 | 0.00 | 54 | 1002.2 |
| 20260506174508 | 70 | 224 | 18.2 | 36.5 | 0.00 | 0.00 | 0.00 | 53 | 1002.2 |
| 20260506173007 | 71 | 247 | 18.2 | 40.8 | 0.00 | 0.00 | 0.00 | 52 | 1002.2 |
| 20260506171515 | 72 | 240 | 16.5 | 40.8 | 0.00 | 0.00 | 0.00 | 53 | 1002.1 |
| 20260506170008 | 72 | 214 | 19.1 | 38.2 | 0.00 | 0.00 | 0.00 | 52 | 1002.0 |
| 20260506164505 | 73 | 225 | 18.2 | 37.4 | 0.00 | 0.00 | 0.00 | 51 | 1002.1 |
| 20260506163004 | 74 | 210 | 9.6 | 40.8 | 0.00 | 0.00 | 0.00 | 49 | 1002.2 |
| 20260506161502 | 74 | 240 | 15.6 | 40.8 | 0.00 | 0.00 | 0.00 | 48 | 1002.3 |
| 20260506160001 | 75 | 230 | 13.9 | 46.1 | 0.00 | 0.00 | 0.00 | 48 | 1002.5 |
| 20260506154600 | 75 | 230 | 14.8 | 44.3 | 0.00 | 0.00 | 0.00 | 49 | 1002.5 |
| 20260506153100 | 75 | 226 | 19.1 | 48.7 | 0.00 | 0.00 | 0.00 | 48 | 1002.6 |
| 20260506151608 | 75 | 246 | 20.9 | 40.8 | 0.00 | 0.00 | 0.00 | 47 | 1002.5 |
| 20260506144606 | 75 | 208 | 20.0 | 46.9 | 0.00 | 0.00 | 0.00 | 45 | 1002.6 |
| 20260506143100 | 76 | 235 | 12.2 | 39.1 | 0.00 | 0.00 | 0.00 | 43 | 1002.5 |
| 20260506141557 | 77 | 230 | 15.6 | 43.4 | 0.00 | 0.00 | 0.00 | 41 | 1002.7 |
| 20260506140105 | 78 | 210 | 12.2 | 46.1 | 0.00 | 0.00 | 0.00 | 41 | 1002.6 |
| 20260506134552 | 78 | 246 | 15.6 | 36.5 | 0.00 | 0.00 | 0.00 | 41 | 1002.9 |
| 20260506133114 | 77 | 213 | 16.5 | 45.2 | 0.00 | 0.00 | 0.00 | 41 | 1002.9 |
| 20260506131546 | 77 | 205 | 19.1 | 36.5 | 0.00 | 0.00 | 0.00 | 43 | 1003.2 |
| 20260506130057 | 76 | 203 | 14.8 | 34.8 | 0.00 | 0.00 | 0.00 | 42 | 1003.4 |
| 20260506124543 | 76 | 235 | 17.4 | 33.0 | 0.00 | 0.00 | 0.00 | 42 | 1003.5 |
| 20260506123042 | 76 | 208 | 11.3 | 36.5 | 0.00 | 0.00 | 0.00 | 41 | 1003.7 |
| 20260506121542 | 76 | 225 | 14.8 | 41.7 | 0.00 | 0.00 | 0.00 | 40 | 1003.9 |
| 20260506120043 | 76 | 235 | 8.7 | 27.8 | 0.00 | 0.00 | 0.00 | 40 | 1004.0 |
| 20260506114542 | 75 | 184 | 12.2 | 32.2 | 0.00 | 0.00 | 0.00 | 43 | 1004.1 |
| 20260506113035 | 75 | 176 | 19.1 | 29.5 | 0.00 | 0.00 | 0.00 | 45 | 1004.4 |
| 20260506111537 | 75 | 212 | 20.0 | 35.6 | 0.00 | 0.00 | 0.00 | 46 | 1004.7 |
| 20260506110036 | 74 | 188 | 13.0 | 33.0 | 0.00 | 0.00 | 0.00 | 48 | 1004.9 |
| 20260506104529 | 74 | 158 | 11.3 | 33.9 | 0.00 | 0.00 | 0.00 | 49 | 1005.1 |
| 20260506103028 | 73 | 190 | 14.8 | 34.8 | 0.00 | 0.00 | 0.00 | 48 | 1005.6 |
| 20260506101544 | 73 | 179 | 15.6 | 31.3 | 0.00 | 0.00 | 0.00 | 50 | 1005.6 |
| 20260506100025 | 73 | 179 | 8.7 | 26.9 | 0.00 | 0.00 | 0.00 | 49 | 1005.9 |
| 20260506094523 | 73 | 204 | 14.8 | 29.5 | 0.00 | 0.00 | 0.00 | 50 | 1006.1 |
| 20260506093021 | 73 | 202 | 7.0 | 21.7 | 0.00 | 0.00 | 0.00 | 53 | 1006.1 |
| 20260506091522 | 74 | 184 | 8.7 | 20.9 | 0.00 | 0.00 | 0.00 | 47 | 1006.2 |
| 20260506090015 | 73 | 157 | 1.7 | 14.8 | 0.00 | 0.00 | 0.00 | 50 | 1006.3 |
| 20260506084518 | 72 | 142 | 4.3 | 13.9 | 0.00 | 0.00 | 0.00 | 51 | 1006.3 |
| 20260506083008 | 72 | 211 | 1.7 | 13.9 | 0.00 | 0.00 | 0.00 | 53 | 1006.3 |
| 20260506081507 | 71 | 142 | 1.7 | 11.3 | 0.00 | 0.00 | 0.00 | 54 | 1006.3 |
| 20260506073104 | 70 | 187 | 0.0 | 6.1 | 0.00 | 0.00 | 0.00 | 56 | 1006.6 |
| 20260506071607 | 70 | 186 | 0.0 | 6.1 | 0.00 | 0.00 | 0.00 | 58 | 1006.7 |
| 20260506061539 | 65 | 186 | 0.0 | 0.0 | 0.00 | 0.00 | 0.00 | 64 | 1007.0 |
| 20260506044529 | 61 | 323 | 0.0 | 0.0 | 0.00 | 0.00 | 0.00 | 73 | 1006.7 |
| 20260506043028 | 60 | 336 | 0.0 | 0.0 | 0.00 | 0.00 | 0.00 | 74 | 1006.7 |
| 20260506041531 | 60 | 336 | 0.0 | 7.0 | 0.00 | 0.00 | 0.00 | 74 | 1006.5 |
| 20260506040025 | 61 | 338 | 1.7 | 11.3 | 0.00 | 0.00 | 0.00 | 74 | 1006.4 |
| 20260506034519 | 61 | 339 | 0.0 | 0.0 | 0.00 | 0.00 | 0.00 | 73 | 1006.4 |
| 20260506033016 | 62 | 340 | 0.0 | 11.3 | 0.00 | 0.00 | 0.00 | 72 | 1006.3 |
| 20260506031522 | 62 | 340 | 0.0 | 13.0 | 0.00 | 0.00 | 0.00 | 71 | 1006.3 |
| 20260506030020 | 62 | 338 | 3.5 | 20.0 | 0.00 | 0.00 | 0.00 | 71 | 1006.3 |
| 20260506024513 | 63 | 337 | 1.7 | 13.9 | 0.00 | 0.00 | 0.00 | 70 | 1006.2 |
| 20260506023012 | 63 | 333 | 0.0 | 9.6 | 0.00 | 0.00 | 0.00 | 70 | 1006.2 |
| 20260506021511 | 63 | 334 | 4.3 | 21.7 | 0.00 | 0.00 | 0.00 | 69 | 1006.1 |
| 20260506020013 | 64 | 346 | 7.0 | 20.0 | 0.00 | 0.00 | 0.00 | 68 | 1005.9 |
| 20260506014513 | 64 | 330 | 8.7 | 20.9 | 0.00 | 0.00 | 0.00 | 67 | 1005.8 |
| 20260506013021 | 64 | 350 | 3.5 | 16.5 | 0.00 | 0.00 | 0.00 | 66 | 1005.8 |
| 20260506011506 | 64 | 345 | 8.7 | 28.7 | 0.00 | 0.00 | 0.00 | 67 | 1005.8 |
| 20260506010003 | 62 | 334 | 15.6 | 26.1 | 0.00 | 0.00 | 0.00 | 70 | 1005.6 |
| 20260506004600 | 60 | 230 | 0.0 | 0.0 | 0.00 | 0.00 | 0.00 | 68 | 1005.5 |
| 20260506003057 | 60 | 230 | 0.0 | 0.0 | 0.00 | 0.00 | 0.00 | 67 | 1005.2 |
| 20260506001614 | 60 | 230 | 0.0 | 0.0 | 0.00 | 0.00 | 0.00 | 67 | 1005.0 |
| 20260506000053 | 60 | 230 | 0.0 | 11.3 | 0.00 | 0.00 | 0.00 | 66 | 1005.0 |
| 20260505234553 | 60 | 225 | 0.0 | 0.0 | 0.00 | 0.00 | 0.00 | 67 | 1004.8 |
| 20260505233055 | 60 | 225 | 0.0 | 8.7 | 0.00 | 0.00 | 0.00 | 66 | 1004.6 |
| 20260505231553 | 60 | 225 | 0.0 | 6.1 | 0.00 | 0.00 | 0.00 | 66 | 1004.6 |
| 20260505230047 | 60 | 225 | 0.0 | 7.0 | 0.00 | 0.00 | 0.00 | 65 | 1004.4 |
| 20260505224547 | 60 | 225 | 0.0 | 0.0 | 0.00 | 0.00 | 0.00 | 65 | 1004.2 |
| 20260505223048 | 61 | 225 | 0.0 | 12.2 | 0.00 | 0.00 | 0.00 | 64 | 1004.0 |
| 20260505221544 | 61 | 225 | 0.0 | 0.0 | 0.00 | 0.00 | 0.00 | 63 | 1003.9 |
| 20260505220041 | 62 | 224 | 0.0 | 5.2 | 0.00 | 0.00 | 0.00 | 61 | 1003.8 |
| 20260505214554 | 63 | 225 | 2.6 | 13.9 | 0.00 | 0.00 | 0.00 | 60 | 1003.6 |
| 20260505213050 | 63 | 224 | 2.6 | 15.6 | 0.00 | 0.00 | 0.00 | 60 | 1003.6 |
| 20260505211534 | 62 | 213 | 4.3 | 9.6 | 0.00 | 0.00 | 0.00 | 61 | 1003.5 |
| 20260505210034 | 63 | 212 | 0.0 | 7.0 | 0.00 | 0.00 | 0.00 | 60 | 1003.4 |
| 20260505204536 | 64 | 211 | 1.7 | 13.9 | 0.00 | 0.00 | 0.00 | 59 | 1003.0 |
| 20260505203039 | 64 | 224 | 5.2 | 20.0 | 0.00 | 0.00 | 0.00 | 57 | 1002.8 |
| 20260505201545 | 65 | 235 | 6.1 | 17.4 | 0.00 | 0.00 | 0.00 | 57 | 1002.7 |